Location: Wien
(48.2082°N, 16.3738°E)
Time: 13:13:56
(UTC+02:00)

Tiros 1 despin weight - Pass Details

Date: 16 September 2024
Orbit: 573 x 615 km, 48.2° (Epoch: 06 October)

Event Time Altitude Azimuth Distance (km) Brightness Sun altitude
Rises 05:55:22 0° 262° (W) 2,879 - -7.1°
Exits shadow 05:57:20 - 262° (W) 2,109 ? -6.8°
Reaches altitude 10° 05:57:40 10° 262° (W) 1,978 ? -6.7°
Maximum altitude 06:02:14 88° 175° (S) 624 ? -6.0°
Drops below altitude 10° 06:06:49 10° 85° (E) 1,982 ? -5.2°
Sets 06:09:07 0° 85° (E) 2,886 ? -4.8°
